Time,TemperatureF,DewpointF,PressureIn,WindDirection,WindDirectionDegrees,WindSpeedMPH,WindSpeedGustMPH,Humidity,HourlyPrecipIn,Conditions,Clouds,dailyrainin,SoftwareType,DateUTC
2013-05-20 00:01:00,60.1,59.2,30.12,ESE,105,5.8,13.0,97,0.00,,---,0.00,VWS V14.01,2013-05-20 04:01:00,
2013-05-20 00:06:00,60.1,59.2,30.12,SE,127,6.9,8.7,97,0.00,,---,0.00,VWS V14.01,2013-05-20 04:06:00,
2013-05-20 00:11:00,60.1,59.2,30.12,ESE,119,10.5,10.5,97,0.00,,---,0.00,VWS V14.01,2013-05-20 04:11:00,
2013-05-20 00:16:00,59.9,59.0,30.12,SSE,160,8.3,8.3,97,0.00,,---,0.00,VWS V14.01,2013-05-20 04:16:00,
2013-05-20 00:21:00,59.9,59.0,30.12,ESE,123,8.3,11.0,97,0.00,,---,0.00,VWS V14.01,2013-05-20 04:21:00,
2013-05-20 00:26:00,59.9,59.0,30.12,SE,135,11.0,11.6,97,0.00,,---,0.00,VWS V14.01,2013-05-20 04:26:00,
2013-05-20 00:31:00,59.9,59.0,30.09,ESE,123,6.7,6.7,97,0.00,,---,0.00,VWS V14.01,2013-05-20 04:31:00,
2013-05-20 00:36:00,59.9,59.0,30.09,ESE,118,5.8,11.6,97,0.00,,---,0.00,VWS V14.01,2013-05-20 04:36:00,
2013-05-20 00:41:00,59.9,59.0,30.09,SE,131,9.2,11.6,97,0.00,,---,0.00,VWS V14.01,2013-05-20 04:41:00,
2013-05-20 00:46:00,59.9,59.0,30.09,ESE,121,7.8,10.5,97,0.00,,---,0.00,VWS V14.01,2013-05-20 04:46:00,
2013-05-20 00:51:00,60.1,59.2,30.09,SSE,160,9.2,11.2,97,0.00,,---,0.00,VWS V14.01,2013-05-20 04:51:00,
2013-05-20 00:56:00,60.1,59.2,30.09,ESE,119,3.6,8.3,97,0.00,,---,0.00,VWS V14.01,2013-05-20 04:56:00,
2013-05-20 01:01:00,60.1,59.2,30.09,SE,132,7.4,7.4,97,0.00,,---,0.00,VWS V14.01,2013-05-20 05:01:00,
2013-05-20 01:06:00,60.3,59.4,30.09,SE,131,6.3,9.6,97,0.00,,---,0.00,VWS V14.01,2013-05-20 05:06:00,
2013-05-20 01:11:00,60.3,59.4,30.09,SSE,150,11.2,13.4,97,0.00,,---,0.00,VWS V14.01,2013-05-20 05:11:00,
2013-05-20 01:16:00,60.3,59.4,30.06,ESE,115,7.8,7.8,97,0.00,,---,0.00,VWS V14.01,2013-05-20 05:16:00,
2013-05-20 01:21:00,60.1,59.2,30.06,SE,132,4.0,7.4,97,0.00,,---,0.00,VWS V14.01,2013-05-20 05:21:00,
2013-05-20 01:26:00,60.3,59.4,30.06,ESE,103,6.9,11.2,97,0.00,,---,0.00,VWS V14.01,2013-05-20 05:26:00,
2013-05-20 01:31:00,60.3,59.4,30.06,SSE,149,8.3,8.3,97,0.00,,---,0.00,VWS V14.01,2013-05-20 05:31:00,
2013-05-20 01:36:00,60.3,59.4,30.06,ESE,122,4.9,6.3,97,0.00,,---,0.00,VWS V14.01,2013-05-20 05:36:00,
2013-05-20 01:41:00,60.3,59.4,30.06,SE,131,5.4,6.9,97,0.00,,---,0.00,VWS V14.01,2013-05-20 05:41:00,
2013-05-20 01:46:00,60.3,59.4,30.06,ESE,121,6.3,6.3,97,0.00,,---,0.00,VWS V14.01,2013-05-20 05:46:00,
2013-05-20 01:51:00,60.3,59.4,30.06,SE,129,5.4,5.4,97,0.00,,---,0.00,VWS V14.01,2013-05-20 05:51:00,
2013-05-20 01:56:00,60.4,59.6,30.06,SSE,150,5.8,5.8,97,0.00,,---,0.00,VWS V14.01,2013-05-20 05:56:00,
2013-05-20 02:01:00,60.4,59.6,30.06,SE,124,11.6,11.6,97,0.00,,---,0.00,VWS V14.01,2013-05-20 06:01:00,
2013-05-20 02:06:00,60.4,59.6,30.06,SE,126,4.5,6.3,97,0.00,,---,0.00,VWS V14.01,2013-05-20 06:06:00,
2013-05-20 02:11:00,60.4,59.6,30.06,ESE,121,6.7,9.6,97,0.00,,---,0.00,VWS V14.01,2013-05-20 06:11:00,
2013-05-20 02:16:00,60.4,59.6,30.03,East,99,6.7,6.7,97,0.00,,---,0.00,VWS V14.01,2013-05-20 06:16:00,
2013-05-20 02:21:00,60.4,59.6,30.03,ESE,107,4.9,6.9,97,0.00,,---,0.00,VWS V14.01,2013-05-20 06:21:00,
2013-05-20 02:26:00,60.4,59.6,30.03,ESE,121,6.7,6.7,97,0.00,,---,0.00,VWS V14.01,2013-05-20 06:26:00,
2013-05-20 02:31:00,60.6,59.8,30.03,SE,129,9.2,10.5,97,0.00,,---,0.00,VWS V14.01,2013-05-20 06:31:00,
2013-05-20 02:36:00,60.6,59.8,30.03,SE,145,9.2,12.1,97,0.00,,---,0.00,VWS V14.01,2013-05-20 06:36:00,
2013-05-20 02:41:00,60.6,59.8,30.03,SSE,147,6.9,9.2,97,0.00,,---,0.00,VWS V14.01,2013-05-20 06:41:00,
2013-05-20 02:46:00,60.6,59.8,30.03,ESE,121,11.6,12.5,97,0.00,,---,0.00,VWS V14.01,2013-05-20 06:46:00,
2013-05-20 02:51:00,60.6,59.8,30.03,SE,139,5.8,5.8,97,0.00,,---,0.00,VWS V14.01,2013-05-20 06:51:00,
2013-05-20 02:56:00,60.6,59.8,30.03,SE,130,4.9,4.9,97,0.00,,---,0.00,VWS V14.01,2013-05-20 06:56:00,
2013-05-20 03:01:00,60.6,59.8,30.00,SE,132,13.4,13.4,97,0.00,,---,0.00,VWS V14.01,2013-05-20 07:01:00,
2013-05-20 03:06:00,60.6,59.8,30.00,SE,133,10.1,11.2,97,0.00,,---,0.00,VWS V14.01,2013-05-20 07:06:00,
2013-05-20 03:11:00,60.6,59.8,30.00,SE,134,7.4,13.4,97,0.00,,---,0.00,VWS V14.01,2013-05-20 07:11:00,
2013-05-20 03:16:00,60.8,60.0,30.00,ESE,113,8.3,12.1,97,0.00,,---,0.00,VWS V14.01,2013-05-20 07:16:00,
2013-05-20 03:21:00,60.8,60.0,30.00,SE,130,12.1,12.1,97,0.00,,---,0.00,VWS V14.01,2013-05-20 07:21:00,
2013-05-20 03:26:00,60.8,60.0,30.00,ESE,122,8.3,11.2,97,0.00,,---,0.00,VWS V14.01,2013-05-20 07:26:00,
2013-05-20 03:31:00,61.0,60.1,30.00,ESE,123,6.7,9.2,97,0.00,,---,0.00,VWS V14.01,2013-05-20 07:31:00,
2013-05-20 03:36:00,61.0,60.1,30.00,SE,140,14.8,14.8,97,0.00,,---,0.00,VWS V14.01,2013-05-20 07:36:00,
2013-05-20 03:41:00,61.0,60.1,30.00,SE,140,6.3,11.6,97,0.00,,---,0.00,VWS V14.01,2013-05-20 07:41:00,
2013-05-20 03:45:00,61.0,60.1,30.00,SE,127,9.2,11.2,97,0.00,,---,0.00,VWS V14.01,2013-05-20 07:45:00,
2013-05-20 03:50:00,61.0,60.1,30.00,SE,135,6.3,10.1,97,0.00,,---,0.00,VWS V14.01,2013-05-20 07:50:00,
2013-05-20 03:55:00,61.0,60.1,30.00,SE,139,11.0,11.6,97,0.00,,---,0.00,VWS V14.01,2013-05-20 07:55:00,
2013-05-20 04:00:00,61.2,60.3,29.97,SE,131,12.1,12.1,97,0.00,,---,0.00,VWS V14.01,2013-05-20 08:00:00,
2013-05-20 04:05:00,61.2,60.3,29.97,SSW,194,4.5,7.4,97,0.00,,---,0.00,VWS V14.01,2013-05-20 08:05:00,
2013-05-20 04:10:00,61.3,60.5,29.97,SSE,147,13.0,13.0,97,0.00,,---,0.00,VWS V14.01,2013-05-20 08:10:00,
2013-05-20 04:15:00,61.3,60.5,29.97,SSW,196,5.8,11.0,97,0.00,,---,0.00,VWS V14.01,2013-05-20 08:15:00,
2013-05-20 04:20:00,61.3,60.5,29.97,South,172,8.7,11.6,97,0.00,,---,0.00,VWS V14.01,2013-05-20 08:20:00,
2013-05-20 04:25:00,61.3,60.5,29.97,South,175,10.5,11.0,97,0.00,,---,0.00,VWS V14.01,2013-05-20 08:25:00,
2013-05-20 04:30:00,61.3,60.5,29.97,South,186,11.2,11.2,97,0.00,,---,0.00,VWS V14.01,2013-05-20 08:30:00,
2013-05-20 04:35:00,61.3,60.5,29.97,SSE,157,9.2,12.5,97,0.00,,---,0.00,VWS V14.01,2013-05-20 08:35:00,
2013-05-20 04:40:00,61.3,60.5,29.97,SSE,165,10.5,12.5,97,0.00,,---,0.00,VWS V14.01,2013-05-20 08:40:00,
2013-05-20 04:45:00,61.3,60.5,29.97,SSE,149,6.3,9.6,97,0.00,,---,0.00,VWS V14.01,2013-05-20 08:45:00,
2013-05-20 04:50:00,61.3,60.5,29.97,SSE,168,10.1,10.5,97,0.00,,---,0.00,VWS V14.01,2013-05-20 08:50:00,
2013-05-20 04:55:00,61.2,60.3,29.97,SSE,159,12.1,12.5,97,0.00,,---,0.00,VWS V14.01,2013-05-20 08:55:00,
2013-05-20 05:00:00,61.2,60.3,29.97,SSE,168,8.7,13.0,97,0.00,,---,0.00,VWS V14.01,2013-05-20 09:00:00,
2013-05-20 05:05:00,61.2,60.3,29.97,SE,134,10.1,13.0,97,0.00,,---,0.00,VWS V14.01,2013-05-20 09:05:00,
2013-05-20 05:10:00,61.2,60.3,29.97,South,180,11.6,12.1,97,0.00,,---,0.00,VWS V14.01,2013-05-20 09:10:00,
2013-05-20 05:15:00,61.2,60.3,29.97,SSE,162,9.6,11.2,97,0.00,,---,0.00,VWS V14.01,2013-05-20 09:15:00,
2013-05-20 05:20:00,61.2,60.3,29.97,SSE,166,9.2,12.1,97,0.00,,---,0.00,VWS V14.01,2013-05-20 09:20:00,
2013-05-20 05:25:00,61.0,60.1,29.97,SSE,152,15.9,15.9,97,0.00,,---,0.00,VWS V14.01,2013-05-20 09:25:00,
2013-05-20 05:30:00,61.0,60.1,29.97,SSE,158,7.4,11.6,97,0.00,,---,0.00,VWS V14.01,2013-05-20 09:30:00,
2013-05-20 05:35:00,61.0,60.1,29.97,South,174,11.6,11.6,97,0.00,,---,0.00,VWS V14.01,2013-05-20 09:35:00,
2013-05-20 05:40:00,61.0,60.1,29.97,SSE,165,8.7,9.2,97,0.00,,---,0.00,VWS V14.01,2013-05-20 09:40:00,
2013-05-20 05:45:00,62.2,61.4,29.97,SSW,210,3.1,8.3,97,0.00,,---,0.00,VWS V14.01,2013-05-20 09:45:00,
2013-05-20 05:50:00,62.4,61.6,29.97,South,173,5.8,10.5,97,0.00,,---,0.00,VWS V14.01,2013-05-20 09:50:00,
2013-05-20 05:55:00,62.6,61.7,29.97,SE,138,4.5,6.7,97,0.00,,---,0.00,VWS V14.01,2013-05-20 09:55:00,
2013-05-20 06:00:00,62.4,61.6,29.97,SSE,159,8.3,11.6,97,0.00,,---,0.00,VWS V14.01,2013-05-20 10:00:00,
2013-05-20 06:05:00,61.7,60.8,29.97,South,172,6.3,9.2,97,0.00,,---,0.00,VWS V14.01,2013-05-20 10:05:00,
2013-05-20 06:10:00,61.5,60.7,29.97,SSE,165,13.9,13.9,97,0.00,,---,0.00,VWS V14.01,2013-05-20 10:10:00,
2013-05-20 06:15:00,61.2,60.3,29.94,SSE,161,9.2,12.5,97,0.00,,---,0.00,VWS V14.01,2013-05-20 10:15:00,
2013-05-20 06:20:00,61.2,60.3,29.94,South,181,8.3,9.2,97,0.00,,---,0.00,VWS V14.01,2013-05-20 10:20:00,
2013-05-20 06:25:00,61.2,60.3,29.94,SSE,168,8.3,10.1,97,0.00,,---,0.00,VWS V14.01,2013-05-20 10:25:00,
2013-05-20 06:30:00,61.2,60.3,29.94,South,181,6.7,7.8,97,0.00,,---,0.00,VWS V14.01,2013-05-20 10:30:00,
2013-05-20 06:35:00,61.2,60.3,29.94,South,170,2.7,4.5,97,0.00,,---,0.00,VWS V14.01,2013-05-20 10:35:00,
2013-05-20 06:40:00,61.3,60.5,29.94,SSE,157,3.6,6.3,97,0.00,,---,0.00,VWS V14.01,2013-05-20 10:40:00,
2013-05-20 06:45:00,61.5,60.7,29.94,South,180,2.7,3.1,97,0.00,,---,0.00,VWS V14.01,2013-05-20 10:45:00,
2013-05-20 06:50:00,61.5,60.7,29.94,SSW,193,3.6,6.7,97,0.00,,---,0.00,VWS V14.01,2013-05-20 10:50:00,
2013-05-20 06:55:00,61.7,60.8,29.94,South,177,6.7,6.7,97,0.00,,---,0.00,VWS V14.01,2013-05-20 10:55:00,
2013-05-20 07:00:00,61.7,60.8,29.94,SSE,165,9.2,9.2,97,0.00,,---,0.00,VWS V14.01,2013-05-20 11:00:00,
2013-05-20 07:05:00,61.7,60.8,29.94,South,188,4.9,6.9,97,0.00,,---,0.00,VWS V14.01,2013-05-20 11:05:00,
2013-05-20 07:10:00,61.9,61.0,29.94,South,178,4.9,6.9,97,0.00,,---,0.00,VWS V14.01,2013-05-20 11:10:00,
2013-05-20 07:15:00,62.1,61.2,29.94,SSW,196,2.7,4.0,97,0.00,,---,0.00,VWS V14.01,2013-05-20 11:15:00,
2013-05-20 07:20:00,62.2,61.4,29.94,SSW,196,6.7,6.7,97,0.00,,---,0.00,VWS V14.01,2013-05-20 11:20:00,
2013-05-20 07:25:00,62.2,61.4,29.94,South,183,6.9,7.8,97,0.00,,---,0.00,VWS V14.01,2013-05-20 11:25:00,
2013-05-20 07:30:00,62.2,61.4,29.94,South,177,11.0,11.0,97,0.00,,---,0.00,VWS V14.01,2013-05-20 11:30:00,
2013-05-20 07:35:00,62.6,61.7,29.94,SSW,199,5.4,7.4,97,0.00,,---,0.00,VWS V14.01,2013-05-20 11:35:00,
2013-05-20 07:40:00,62.8,61.9,29.94,SSW,208,11.2,11.2,97,0.00,,---,0.00,VWS V14.01,2013-05-20 11:40:00,
2013-05-20 07:45:00,63.0,62.1,29.94,SSW,194,4.9,4.9,97,0.00,,---,0.00,VWS V14.01,2013-05-20 11:45:00,
2013-05-20 07:50:00,63.3,62.5,29.94,SSW,195,7.4,7.4,97,0.00,,---,0.00,VWS V14.01,2013-05-20 11:50:00,
2013-05-20 07:55:00,63.5,62.6,29.94,South,191,6.9,11.0,97,0.00,,---,0.00,VWS V14.01,2013-05-20 11:55:00,
2013-05-20 08:00:00,63.5,62.6,29.94,South,189,9.2,9.2,97,0.00,,---,0.00,VWS V14.01,2013-05-20 12:00:00,
2013-05-20 08:05:00,63.3,62.5,29.94,SSW,194,10.1,10.1,97,0.00,,---,0.00,VWS V14.01,2013-05-20 12:05:00,
2013-05-20 08:10:00,63.3,62.5,29.94,South,174,10.5,11.6,97,0.00,,---,0.00,VWS V14.01,2013-05-20 12:10:00,
2013-05-20 08:15:00,63.5,62.6,29.94,SSW,194,7.8,7.8,97,0.00,,---,0.00,VWS V14.01,2013-05-20 12:15:00,
2013-05-20 08:20:00,63.5,62.6,29.94,South,183,6.7,7.8,97,0.00,,---,0.00,VWS V14.01,2013-05-20 12:20:00,
2013-05-20 08:25:00,64.2,63.3,29.94,SSE,165,7.8,8.3,97,0.00,,---,0.00,VWS V14.01,2013-05-20 12:25:00,
2013-05-20 08:30:00,64.6,63.7,29.94,South,182,6.9,9.6,97,0.00,,---,0.00,VWS V14.01,2013-05-20 12:30:00,
2013-05-20 08:35:00,64.6,63.7,29.94,South,183,5.4,6.3,97,0.00,,---,0.00,VWS V14.01,2013-05-20 12:35:00,
2013-05-20 08:40:00,64.9,63.8,29.94,South,179,12.5,12.5,96,0.00,,---,0.00,VWS V14.01,2013-05-20 12:40:00,
2013-05-20 08:45:00,63.9,62.1,29.94,SSW,196,7.4,7.8,94,0.00,,---,0.00,VWS V14.01,2013-05-20 12:45:00,
2013-05-20 08:50:00,63.7,61.6,29.94,South,188,4.5,4.5,93,0.00,,---,0.00,VWS V14.01,2013-05-20 12:50:00,
2013-05-20 08:55:00,64.0,61.7,29.94,South,188,6.7,6.7,92,0.00,,---,0.00,VWS V14.01,2013-05-20 12:55:00,
2013-05-20 09:00:00,64.0,61.7,29.94,SSW,203,6.9,6.9,92,0.00,,---,0.00,VWS V14.01,2013-05-20 13:00:00,
2013-05-20 09:05:00,63.9,61.2,29.94,South,178,14.3,14.3,91,0.00,,---,0.00,VWS V14.01,2013-05-20 13:05:00,
2013-05-20 09:10:00,64.2,61.5,29.94,SSW,199,9.2,12.1,91,0.00,,---,0.00,VWS V14.01,2013-05-20 13:10:00,
2013-05-20 09:15:00,64.6,61.9,29.94,South,189,4.5,8.3,91,0.00,,---,0.00,VWS V14.01,2013-05-20 13:15:00,
2013-05-20 09:20:00,64.8,61.8,29.94,SSW,196,9.2,11.2,90,0.00,,---,0.00,VWS V14.01,2013-05-20 13:20:00,
2013-05-20 09:25:00,65.7,62.3,29.94,SSW,205,5.8,7.4,89,0.00,,---,0.00,VWS V14.01,2013-05-20 13:25:00,
2013-05-20 09:30:00,65.7,61.7,29.94,SSW,194,6.7,11.2,87,0.00,,---,0.00,VWS V14.01,2013-05-20 13:30:00,
2013-05-20 09:35:00,64.8,59.8,29.94,SSE,167,4.0,6.7,84,0.00,,---,0.00,VWS V14.01,2013-05-20 13:35:00,
2013-05-20 09:40:00,65.1,60.5,29.94,SSW,198,6.9,6.9,85,0.00,,---,0.00,VWS V14.01,2013-05-20 13:40:00,
2013-05-20 09:45:00,63.9,59.6,29.94,SW,219,5.4,6.9,86,0.00,,---,0.00,VWS V14.01,2013-05-20 13:45:00,
2013-05-20 09:49:00,63.3,60.3,29.94,South,178,8.7,9.2,90,0.00,,---,0.00,VWS V14.01,2013-05-20 13:49:00,
2013-05-20 09:54:00,63.7,60.7,29.94,SSW,209,3.6,9.6,90,0.00,,---,0.00,VWS V14.01,2013-05-20 13:54:00,
2013-05-20 09:59:00,63.5,60.5,29.91,SW,222,7.8,8.7,90,0.00,,---,0.00,VWS V14.01,2013-05-20 13:59:00,
2013-05-20 10:04:00,63.5,60.8,29.91,SSW,212,6.3,10.5,91,0.00,,---,0.00,VWS V14.01,2013-05-20 14:04:00,
2013-05-20 10:09:00,64.2,61.5,29.91,South,188,3.6,9.6,91,0.00,,---,0.00,VWS V14.01,2013-05-20 14:09:00,
2013-05-20 10:14:00,65.5,62.5,29.91,South,188,4.5,6.9,90,0.00,,---,0.00,VWS V14.01,2013-05-20 14:14:00,
2013-05-20 10:19:00,66.9,62.6,29.91,SW,217,4.5,7.4,86,0.00,,---,0.00,VWS V14.01,2013-05-20 14:19:00,
2013-05-20 10:25:00,66.2,60.2,29.91,SSW,193,6.3,7.8,81,0.00,,---,0.00,VWS V14.01,2013-05-20 14:25:00,
2013-05-20 10:29:00,68.7,62.0,29.91,SSW,192,6.7,8.3,79,0.00,,---,0.00,VWS V14.01,2013-05-20 14:29:00,
2013-05-20 10:34:00,70.5,61.8,29.91,SSW,207,10.5,12.1,74,0.00,,---,0.00,VWS V14.01,2013-05-20 14:34:00,
2013-05-20 10:39:00,70.7,60.5,29.91,South,179,5.8,7.8,70,0.00,,---,0.00,VWS V14.01,2013-05-20 14:39:00,
2013-05-20 10:44:00,70.7,60.5,29.91,SSW,207,8.7,10.1,70,0.00,,---,0.00,VWS V14.01,2013-05-20 14:44:00,
2013-05-20 10:49:00,71.8,61.1,29.91,SSE,168,6.9,9.6,69,0.00,,---,0.00,VWS V14.01,2013-05-20 14:49:00,
2013-05-20 10:54:00,72.0,60.4,29.91,South,175,2.7,10.1,67,0.00,,---,0.00,VWS V14.01,2013-05-20 14:54:00,
2013-05-20 10:59:00,72.9,59.5,29.91,SSE,167,7.8,10.5,63,0.00,,---,0.00,VWS V14.01,2013-05-20 14:59:00,
2013-05-20 11:04:00,73.4,60.0,29.91,SSW,196,3.6,9.2,63,0.00,,---,0.00,VWS V14.01,2013-05-20 15:04:00,
2013-05-20 11:09:00,73.6,59.8,29.91,South,179,9.2,9.2,62,0.00,,---,0.00,VWS V14.01,2013-05-20 15:09:00,
2013-05-20 11:14:00,73.4,59.6,29.88,South,189,12.1,12.1,62,0.00,,---,0.00,VWS V14.01,2013-05-20 15:14:00,
2013-05-20 11:19:00,73.2,59.4,29.88,South,177,6.9,9.2,62,0.00,,---,0.00,VWS V14.01,2013-05-20 15:19:00,
2013-05-20 11:24:00,73.6,59.8,29.88,SSW,194,9.2,11.6,62,0.00,,---,0.00,VWS V14.01,2013-05-20 15:24:00,
2013-05-20 11:29:00,73.6,59.3,29.88,SSW,195,6.3,10.5,61,0.00,,---,0.00,VWS V14.01,2013-05-20 15:29:00,
2013-05-20 11:34:00,73.4,59.2,29.88,SSE,168,4.0,9.2,61,0.00,,---,0.00,VWS V14.01,2013-05-20 15:34:00,
2013-05-20 11:39:00,73.9,59.7,29.88,South,174,6.3,8.3,61,0.00,,---,0.00,VWS V14.01,2013-05-20 15:39:00,
2013-05-20 11:44:00,74.3,59.5,29.88,SSW,195,2.7,6.9,60,0.00,,---,0.00,VWS V14.01,2013-05-20 15:44:00,
2013-05-20 11:49:00,74.7,59.4,29.88,SE,135,7.4,9.2,59,0.00,,---,0.00,VWS V14.01,2013-05-20 15:49:00,
2013-05-20 11:54:00,75.4,59.6,29.88,SSE,150,2.7,5.4,58,0.00,,---,0.00,VWS V14.01,2013-05-20 15:54:00,
2013-05-20 11:59:00,75.4,59.1,29.88,SE,144,6.7,6.9,57,0.00,,---,0.00,VWS V14.01,2013-05-20 15:59:00,
2013-05-20 12:04:00,75.0,58.8,29.88,South,176,4.9,5.8,57,0.00,,---,0.00,VWS V14.01,2013-05-20 16:04:00,
2013-05-20 12:09:00,75.6,58.8,29.88,SSW,195,4.0,6.9,56,0.00,,---,0.00,VWS V14.01,2013-05-20 16:09:00,
2013-05-20 12:14:00,75.9,58.6,29.85,South,188,6.7,6.9,55,0.00,,---,0.00,VWS V14.01,2013-05-20 16:14:00,
2013-05-20 12:19:00,75.9,58.6,29.85,SSE,149,7.8,8.7,55,0.00,,---,0.00,VWS V14.01,2013-05-20 16:19:00,
2013-05-20 12:24:00,75.9,58.1,29.85,SSE,166,7.8,11.0,54,0.00,,---,0.00,VWS V14.01,2013-05-20 16:24:00,
2013-05-20 12:29:00,75.9,58.1,29.85,South,173,3.1,6.7,54,0.00,,---,0.00,VWS V14.01,2013-05-20 16:29:00,
2013-05-20 12:34:00,75.6,58.8,29.85,South,177,6.9,8.7,56,0.00,,---,0.00,VWS V14.01,2013-05-20 16:34:00,
2013-05-20 12:39:00,76.6,58.8,29.85,SSE,166,6.7,10.5,54,0.00,,---,0.00,VWS V14.01,2013-05-20 16:39:00,
2013-05-20 12:44:00,76.6,58.2,29.85,South,190,5.8,6.9,53,0.00,,---,0.00,VWS V14.01,2013-05-20 16:44:00,
2013-05-20 12:49:00,77.2,58.7,29.85,SSE,155,3.6,5.8,53,0.00,,---,0.00,VWS V14.01,2013-05-20 16:49:00,
2013-05-20 12:54:00,77.2,59.3,29.85,South,185,9.6,10.5,54,0.00,,---,0.00,VWS V14.01,2013-05-20 16:54:00,
2013-05-20 12:59:00,77.4,59.4,29.85,South,182,2.7,7.8,54,0.00,,---,0.00,VWS V14.01,2013-05-20 16:59:00,
2013-05-20 13:04:00,77.4,58.9,29.85,SSE,149,6.9,10.5,53,0.00,,---,0.00,VWS V14.01,2013-05-20 17:04:00,
2013-05-20 13:09:00,77.9,59.4,29.85,South,181,9.2,10.1,53,0.00,,---,0.00,VWS V14.01,2013-05-20 17:09:00,
2013-05-20 13:14:00,78.4,59.4,29.85,SSW,203,9.2,11.2,52,0.00,,---,0.00,VWS V14.01,2013-05-20 17:14:00,
2013-05-20 13:19:00,78.1,59.6,29.85,SSW,193,7.8,7.8,53,0.00,,---,0.00,VWS V14.01,2013-05-20 17:19:00,
2013-05-20 13:24:00,77.9,59.9,29.85,SSW,203,4.5,8.7,54,0.00,,---,0.00,VWS V14.01,2013-05-20 17:24:00,
2013-05-20 13:29:00,77.9,59.9,29.85,SSW,206,4.9,10.1,54,0.00,,---,0.00,VWS V14.01,2013-05-20 17:29:00,
2013-05-20 13:34:00,78.4,59.9,29.85,SW,215,5.4,5.4,53,0.00,,---,0.00,VWS V14.01,2013-05-20 17:34:00,
2013-05-20 13:39:00,78.6,59.5,29.85,SSW,193,9.2,9.2,52,0.00,,---,0.00,VWS V14.01,2013-05-20 17:39:00,
2013-05-20 13:44:00,78.4,58.8,29.85,SSE,154,11.0,13.0,51,0.00,,---,0.00,VWS V14.01,2013-05-20 17:44:00,
2013-05-20 13:49:00,77.7,58.2,29.85,SSE,163,8.3,9.6,51,0.00,,---,0.00,VWS V14.01,2013-05-20 17:49:00,
2013-05-20 13:54:00,76.8,58.9,29.85,SSE,160,6.3,7.4,54,0.00,,---,0.00,VWS V14.01,2013-05-20 17:54:00,
2013-05-20 13:59:00,77.4,59.4,29.85,SSE,149,11.0,11.0,54,0.00,,---,0.00,VWS V14.01,2013-05-20 17:59:00,
2013-05-20 14:04:00,77.5,58.5,29.83,SSE,167,9.2,12.1,52,0.00,,---,0.00,VWS V14.01,2013-05-20 18:04:00,
2013-05-20 14:09:00,76.6,57.7,29.83,SSE,161,9.6,11.6,52,0.00,,---,0.00,VWS V14.01,2013-05-20 18:09:00,
2013-05-20 14:14:00,76.1,58.3,29.83,SSE,150,7.8,9.2,54,0.00,,---,0.00,VWS V14.01,2013-05-20 18:14:00,
2013-05-20 14:19:00,76.5,58.6,29.83,SSE,163,8.3,8.3,54,0.00,,---,0.00,VWS V14.01,2013-05-20 18:19:00,
2013-05-20 14:24:00,76.3,58.9,29.83,South,183,5.8,6.9,55,0.00,,---,0.00,VWS V14.01,2013-05-20 18:24:00,
2013-05-20 14:29:00,76.8,59.5,29.83,SSE,162,6.7,6.7,55,0.00,,---,0.00,VWS V14.01,2013-05-20 18:29:00,
2013-05-20 14:34:00,76.6,58.8,29.83,SSE,149,6.7,8.7,54,0.00,,---,0.00,VWS V14.01,2013-05-20 18:34:00,
2013-05-20 14:39:00,77.7,59.2,29.83,SSE,152,7.4,9.2,53,0.00,,---,0.00,VWS V14.01,2013-05-20 18:39:00,
2013-05-20 14:44:00,77.7,59.2,29.83,SSE,148,4.5,4.9,53,0.00,,---,0.00,VWS V14.01,2013-05-20 18:44:00,
2013-05-20 14:49:00,79.3,60.2,29.83,SSE,160,0.0,0.0,52,0.00,,---,0.00,VWS V14.01,2013-05-20 18:49:00,
2013-05-20 14:54:00,79.0,59.3,29.83,SSE,165,8.3,9.2,51,0.00,,---,0.00,VWS V14.01,2013-05-20 18:54:00,
2013-05-20 14:59:00,78.1,59.6,29.83,SE,140,8.3,8.3,53,0.00,,---,0.00,VWS V14.01,2013-05-20 18:59:00,
2013-05-20 15:04:00,77.7,59.2,29.83,SSE,168,10.5,11.0,53,0.00,,---,0.00,VWS V14.01,2013-05-20 19:04:00,
2013-05-20 15:09:00,77.4,59.4,29.83,South,191,5.8,8.7,54,0.00,,---,0.00,VWS V14.01,2013-05-20 19:09:00,
2013-05-20 15:14:00,76.8,59.5,29.83,SSE,155,8.7,10.1,55,0.00,,---,0.00,VWS V14.01,2013-05-20 19:14:00,
2013-05-20 15:19:00,75.9,58.6,29.83,SSE,165,8.3,11.6,55,0.00,,---,0.00,VWS V14.01,2013-05-20 19:19:00,
2013-05-20 15:24:00,75.6,58.8,29.83,South,176,3.1,8.7,56,0.00,,---,0.00,VWS V14.01,2013-05-20 19:24:00,
2013-05-20 15:29:00,75.0,59.3,29.83,SSE,154,5.8,10.5,58,0.00,,---,0.00,VWS V14.01,2013-05-20 19:29:00,
2013-05-20 15:34:00,74.8,59.6,29.83,South,173,3.6,7.8,59,0.00,,---,0.00,VWS V14.01,2013-05-20 19:34:00,
2013-05-20 15:39:00,75.2,59.4,29.83,SW,220,10.1,13.4,58,0.00,,---,0.00,VWS V14.01,2013-05-20 19:39:00,
2013-05-20 15:44:00,75.2,59.4,29.83,South,173,15.4,15.4,58,0.00,,---,0.00,VWS V14.01,2013-05-20 19:44:00,
2013-05-20 15:49:00,74.5,59.2,29.83,SSE,154,10.5,13.9,59,0.00,,---,0.00,VWS V14.01,2013-05-20 19:49:00,
2013-05-20 15:54:00,74.1,59.8,29.83,SSE,153,9.2,11.2,61,0.00,,---,0.00,VWS V14.01,2013-05-20 19:54:00,
2013-05-20 15:59:00,74.3,60.5,29.83,SSE,149,12.5,13.0,62,0.00,,---,0.00,VWS V14.01,2013-05-20 19:59:00,
2013-05-20 16:04:00,74.8,60.5,29.83,South,185,11.2,11.6,61,0.00,,---,0.00,VWS V14.01,2013-05-20 20:04:00,
2013-05-20 16:09:00,75.6,60.7,29.83,SSW,198,11.6,11.6,60,0.00,,---,0.00,VWS V14.01,2013-05-20 20:09:00,
2013-05-20 16:14:00,75.7,60.4,29.83,South,182,10.5,11.6,59,0.00,,---,0.00,VWS V14.01,2013-05-20 20:14:00,
2013-05-20 16:19:00,75.4,60.1,29.83,South,177,11.0,11.0,59,0.00,,---,0.00,VWS V14.01,2013-05-20 20:19:00,
2013-05-20 16:24:00,75.2,60.4,29.83,South,191,10.1,11.6,60,0.00,,---,0.00,VWS V14.01,2013-05-20 20:24:00,
2013-05-20 16:29:00,75.2,59.9,29.83,SSW,194,6.3,6.3,59,0.00,,---,0.00,VWS V14.01,2013-05-20 20:29:00,
2013-05-20 16:34:00,75.6,59.8,29.83,SSE,167,10.5,10.5,58,0.00,,---,0.00,VWS V14.01,2013-05-20 20:34:00,
2013-05-20 16:39:00,75.7,59.9,29.83,South,176,6.9,11.2,58,0.00,,---,0.00,VWS V14.01,2013-05-20 20:39:00,
2013-05-20 16:44:00,75.2,59.9,29.83,South,189,9.6,9.6,59,0.00,,---,0.00,VWS V14.01,2013-05-20 20:44:00,
2013-05-20 16:49:00,74.7,59.9,29.83,SSW,200,9.6,9.6,60,0.00,,---,0.00,VWS V14.01,2013-05-20 20:49:00,
2013-05-20 16:54:00,75.0,60.2,29.83,South,182,9.6,11.2,60,0.00,,---,0.00,VWS V14.01,2013-05-20 20:54:00,
2013-05-20 16:59:00,74.7,59.4,29.83,SSE,167,9.2,11.2,59,0.00,,---,0.00,VWS V14.01,2013-05-20 20:59:00,
2013-05-20 17:04:00,74.7,59.4,29.83,SSW,199,13.9,13.9,59,0.00,,---,0.00,VWS V14.01,2013-05-20 21:04:00,
2013-05-20 17:09:00,74.1,59.4,29.83,SSW,203,10.5,15.4,60,0.00,,---,0.00,VWS V14.01,2013-05-20 21:09:00,
2013-05-20 17:14:00,73.8,59.5,29.83,South,170,5.4,12.5,61,0.00,,---,0.00,VWS V14.01,2013-05-20 21:14:00,
2013-05-20 17:19:00,73.6,59.8,29.83,South,176,11.6,13.9,62,0.00,,---,0.00,VWS V14.01,2013-05-20 21:19:00,
2013-05-20 17:23:00,73.2,59.9,29.83,South,171,8.7,11.6,63,0.00,,---,0.00,VWS V14.01,2013-05-20 21:23:00,
2013-05-20 17:28:00,73.0,59.7,29.83,South,188,5.4,13.4,63,0.00,,---,0.00,VWS V14.01,2013-05-20 21:28:00,
2013-05-20 17:33:00,73.0,60.2,29.83,SSW,207,12.1,12.5,64,0.00,,---,0.00,VWS V14.01,2013-05-20 21:33:00,
2013-05-20 17:38:00,72.5,59.6,29.83,South,188,8.3,13.4,64,0.00,,---,0.00,VWS V14.01,2013-05-20 21:38:00,
2013-05-20 17:43:00,71.8,59.4,29.83,South,184,8.7,14.8,65,0.00,,---,0.00,VWS V14.01,2013-05-20 21:43:00,
2013-05-20 17:48:00,72.0,59.6,29.80,South,187,5.8,15.4,65,0.00,,---,0.00,VWS V14.01,2013-05-20 21:48:00,
2013-05-20 17:53:00,72.0,59.6,29.80,SSW,193,11.0,13.4,65,0.00,,---,0.00,VWS V14.01,2013-05-20 21:53:00,
2013-05-20 17:58:00,71.4,59.5,29.80,SSW,195,13.0,15.9,66,0.00,,---,0.00,VWS V14.01,2013-05-20 21:58:00,
2013-05-20 18:03:00,71.1,59.6,29.80,South,178,9.2,12.5,67,0.00,,---,0.00,VWS V14.01,2013-05-20 22:03:00,
2013-05-20 18:08:00,72.3,60.8,29.80,SW,217,12.5,15.9,67,0.00,,---,0.00,VWS V14.01,2013-05-20 22:08:00,
2013-05-20 18:13:00,73.2,60.8,29.80,South,179,8.7,13.0,65,0.00,,---,0.00,VWS V14.01,2013-05-20 22:13:00,
2013-05-20 18:18:00,74.3,60.5,29.83,SSW,199,11.6,12.1,62,0.00,,---,0.00,VWS V14.01,2013-05-20 22:18:00,
2013-05-20 18:23:00,73.8,59.9,29.83,South,190,6.9,11.2,62,0.00,,---,0.00,VWS V14.01,2013-05-20 22:23:00,
2013-05-20 18:28:00,72.9,59.5,29.83,South,173,5.4,8.3,63,0.00,,---,0.00,VWS V14.01,2013-05-20 22:28:00,
2013-05-20 18:33:00,73.9,60.1,29.83,South,184,9.6,9.6,62,0.00,,---,0.00,VWS V14.01,2013-05-20 22:33:00,
2013-05-20 18:38:00,73.2,59.0,29.83,SSW,201,7.8,10.5,61,0.00,,---,0.00,VWS V14.01,2013-05-20 22:38:00,
2013-05-20 18:43:00,71.1,58.3,29.83,SSW,205,11.6,11.6,64,0.00,,---,0.00,VWS V14.01,2013-05-20 22:43:00,
2013-05-20 18:48:00,70.7,58.8,29.83,SSW,202,9.2,13.4,66,0.00,,---,0.00,VWS V14.01,2013-05-20 22:48:00,
2013-05-20 18:53:00,70.5,59.5,29.83,SSW,197,4.5,8.3,68,0.00,,---,0.00,VWS V14.01,2013-05-20 22:53:00,
2013-05-20 18:58:00,69.8,58.8,29.83,South,188,9.6,10.1,68,0.00,,---,0.00,VWS V14.01,2013-05-20 22:58:00,
2013-05-20 19:03:00,69.3,59.1,29.83,SSW,199,8.7,8.7,70,0.00,,---,0.00,VWS V14.01,2013-05-20 23:03:00,
2013-05-20 19:08:00,68.4,59.0,29.83,South,173,4.9,8.7,72,0.00,,---,0.00,VWS V14.01,2013-05-20 23:08:00,
2013-05-20 19:13:00,68.9,59.9,29.83,SSE,155,5.8,7.4,73,0.00,,---,0.00,VWS V14.01,2013-05-20 23:13:00,
2013-05-20 19:18:00,68.5,59.5,29.83,SSW,192,9.2,9.2,73,0.00,,---,0.00,VWS V14.01,2013-05-20 23:18:00,
2013-05-20 19:23:00,67.5,58.9,29.83,SSW,195,6.9,8.7,74,0.00,,---,0.00,VWS V14.01,2013-05-20 23:23:00,
2013-05-20 19:28:00,67.3,59.8,29.83,South,184,4.0,6.9,77,0.00,,---,0.00,VWS V14.01,2013-05-20 23:28:00,
2013-05-20 19:33:00,66.9,59.8,29.83,SSE,154,4.9,7.8,78,0.00,,---,0.00,VWS V14.01,2013-05-20 23:33:00,
2013-05-20 19:38:00,66.2,59.5,29.83,SSE,152,4.0,7.8,79,0.00,,---,0.00,VWS V14.01,2013-05-20 23:38:00,
2013-05-20 19:43:00,65.8,59.8,29.83,South,186,4.9,6.3,81,0.00,,---,0.00,VWS V14.01,2013-05-20 23:43:00,
2013-05-20 19:48:00,65.1,59.5,29.83,SSE,157,5.8,6.3,82,0.00,,---,0.00,VWS V14.01,2013-05-20 23:48:00,
2013-05-20 19:53:00,64.4,59.1,29.83,South,176,5.4,6.3,83,0.00,,---,0.00,VWS V14.01,2013-05-20 23:53:00,
2013-05-20 19:58:00,63.9,59.3,29.83,South,176,4.5,6.3,85,0.00,,---,0.00,VWS V14.01,2013-05-20 23:58:00,
2013-05-20 20:03:00,63.5,59.2,29.83,South,171,0.0,4.0,86,0.00,,---,0.00,VWS V14.01,2013-05-21 00:03:00,
2013-05-20 20:08:00,63.1,59.5,29.83,SE,144,5.8,7.4,88,0.00,,---,0.00,VWS V14.01,2013-05-21 00:08:00,
2013-05-20 20:13:00,62.8,59.5,29.83,South,180,2.7,7.8,89,0.00,,---,0.00,VWS V14.01,2013-05-21 00:13:00,
2013-05-20 20:18:00,62.4,59.1,29.83,South,183,6.3,10.5,89,0.00,,---,0.00,VWS V14.01,2013-05-21 00:18:00,
2013-05-20 20:23:00,62.1,59.1,29.83,South,177,7.4,9.2,90,0.00,,---,0.00,VWS V14.01,2013-05-21 00:23:00,
2013-05-20 20:28:00,61.9,59.2,29.83,South,177,8.7,9.2,91,0.00,,---,0.00,VWS V14.01,2013-05-21 00:28:00,
2013-05-20 20:33:00,62.2,59.9,29.83,South,180,11.6,13.0,92,0.00,,---,0.00,VWS V14.01,2013-05-21 00:33:00,
2013-05-20 20:38:00,62.1,59.7,29.83,South,190,6.9,7.8,92,0.00,,---,0.00,VWS V14.01,2013-05-21 00:38:00,
2013-05-20 20:43:00,62.2,60.2,29.83,South,171,6.3,8.7,93,0.00,,---,0.00,VWS V14.01,2013-05-21 00:43:00,
2013-05-20 20:48:00,62.2,60.5,29.83,South,179,2.7,6.9,94,0.00,,---,0.00,VWS V14.01,2013-05-21 00:48:00,
2013-05-20 20:53:00,62.2,60.5,29.83,South,170,3.6,4.0,94,0.00,,---,0.00,VWS V14.01,2013-05-21 00:53:00,
2013-05-20 20:58:00,62.4,60.7,29.83,SSW,196,8.3,8.3,94,0.00,,---,0.00,VWS V14.01,2013-05-21 00:58:00,
2013-05-20 21:03:00,62.2,60.5,29.83,South,181,4.9,6.3,94,0.00,,---,0.00,VWS V14.01,2013-05-21 01:03:00,
2013-05-20 21:08:00,62.2,60.5,29.83,SSW,193,6.3,8.3,94,0.00,,---,0.00,VWS V14.01,2013-05-21 01:08:00,
2013-05-20 21:13:00,62.2,60.5,29.83,South,175,3.1,5.4,94,0.00,,---,0.00,VWS V14.01,2013-05-21 01:13:00,
2013-05-20 21:18:00,62.2,60.8,29.83,SSW,204,7.8,9.6,95,0.00,,---,0.00,VWS V14.01,2013-05-21 01:18:00,
2013-05-20 21:23:00,62.2,60.8,29.83,South,186,9.6,9.6,95,0.00,,---,0.00,VWS V14.01,2013-05-21 01:23:00,
2013-05-20 21:28:00,62.2,61.1,29.83,SW,217,4.5,6.9,96,0.00,,---,0.00,VWS V14.01,2013-05-21 01:28:00,
2013-05-20 21:33:00,62.6,61.5,29.83,SSW,200,4.9,5.8,96,0.00,,---,0.00,VWS V14.01,2013-05-21 01:33:00,
2013-05-20 21:38:00,62.8,61.6,29.83,South,185,12.5,12.5,96,0.00,,---,0.00,VWS V14.01,2013-05-21 01:38:00,
2013-05-20 21:43:00,63.1,62.0,29.83,South,191,3.1,5.4,96,0.00,,---,0.00,VWS V14.01,2013-05-21 01:43:00,
2013-05-20 21:48:00,63.5,62.3,29.85,NW,319,7.4,7.4,96,0.00,,---,0.00,VWS V14.01,2013-05-21 01:48:00,
2013-05-20 21:53:00,63.9,62.7,29.85,West,280,0.0,3.1,96,0.00,,---,0.00,VWS V14.01,2013-05-21 01:53:00,
2013-05-20 21:58:00,64.0,62.9,29.85,South,187,3.6,5.4,96,0.00,,---,0.00,VWS V14.01,2013-05-21 01:58:00,
2013-05-20 22:03:00,64.4,63.2,29.85,WSW,238,5.4,5.4,96,0.00,,---,0.00,VWS V14.01,2013-05-21 02:03:00,
2013-05-20 22:08:00,64.6,63.4,29.85,WSW,247,3.6,3.6,96,0.00,,---,0.00,VWS V14.01,2013-05-21 02:08:00,
2013-05-20 22:13:00,64.8,63.6,29.85,WNW,294,0.0,0.0,96,0.00,,---,0.00,VWS V14.01,2013-05-21 02:13:00,
2013-05-20 22:18:00,64.8,63.3,29.85,WNW,294,0.0,0.0,95,0.00,,---,0.00,VWS V14.01,2013-05-21 02:18:00,
2013-05-20 22:23:00,64.8,63.3,29.85,WSW,246,4.5,5.4,95,0.00,,---,0.00,VWS V14.01,2013-05-21 02:23:00,
2013-05-20 22:28:00,64.4,62.9,29.85,SSW,212,2.7,2.7,95,0.00,,---,0.00,VWS V14.01,2013-05-21 02:28:00,
2013-05-20 22:33:00,64.4,62.9,29.85,SW,224,3.1,4.0,95,0.00,,---,0.00,VWS V14.01,2013-05-21 02:33:00,
2013-05-20 22:38:00,64.4,62.9,29.85,SW,226,3.6,4.5,95,0.00,,---,0.00,VWS V14.01,2013-05-21 02:38:00,
2013-05-20 22:43:00,64.2,62.8,29.85,SW,222,3.1,3.1,95,0.00,,---,0.00,VWS V14.01,2013-05-21 02:43:00,
2013-05-20 22:48:00,64.4,62.9,29.85,SSW,204,4.0,4.0,95,0.00,,---,0.00,VWS V14.01,2013-05-21 02:48:00,
2013-05-20 22:53:00,64.6,63.1,29.85,South,174,0.0,3.1,95,0.00,,---,0.00,VWS V14.01,2013-05-21 02:53:00,
2013-05-20 22:58:00,64.4,62.9,29.85,South,186,4.9,5.4,95,0.00,,---,0.00,VWS V14.01,2013-05-21 02:58:00,
2013-05-20 23:03:00,64.2,62.5,29.85,SSE,165,2.7,9.2,94,0.00,,---,0.00,VWS V14.01,2013-05-21 03:03:00,
2013-05-20 23:08:00,64.0,62.3,29.85,SW,227,5.4,7.4,94,0.00,,---,0.00,VWS V14.01,2013-05-21 03:08:00,
2013-05-20 23:13:00,64.0,62.3,29.85,SSE,167,2.7,5.4,94,0.00,,---,0.00,VWS V14.01,2013-05-21 03:13:00,
2013-05-20 23:18:00,64.2,62.5,29.85,SSW,199,4.9,6.3,94,0.00,,---,0.00,VWS V14.01,2013-05-21 03:18:00,
2013-05-20 23:23:00,64.0,62.3,29.85,SSW,192,4.0,5.8,94,0.00,,---,0.00,VWS V14.01,2013-05-21 03:23:00,
2013-05-20 23:28:00,63.9,62.1,29.85,SSW,194,2.7,5.4,94,0.00,,---,0.00,VWS V14.01,2013-05-21 03:28:00,
2013-05-20 23:33:00,63.5,61.8,29.83,South,191,3.6,5.8,94,0.00,,---,0.00,VWS V14.01,2013-05-21 03:33:00,
2013-05-20 23:37:00,63.5,61.8,29.83,SSW,197,0.0,4.0,94,0.00,,---,0.00,VWS V14.01,2013-05-21 03:37:00,
2013-05-20 23:42:00,63.5,61.8,29.83,SSW,207,4.0,5.8,94,0.00,,---,0.00,VWS V14.01,2013-05-21 03:42:00,
2013-05-20 23:47:00,63.5,62.0,29.85,SSW,211,0.0,3.6,95,0.00,,---,0.00,VWS V14.01,2013-05-21 03:47:00,
2013-05-20 23:52:00,63.3,61.9,29.85,SSW,212,0.0,0.0,95,0.00,,---,0.00,VWS V14.01,2013-05-21 03:52:00,
2013-05-20 23:57:00,63.3,61.9,29.85,SSW,211,0.0,0.0,95,0.00,,---,0.00,VWS V14.01,2013-05-21 03:57:00,